contact:dominique.lefevre@mio.osupytheas.fr, maurice.libes@osupytheas.fr, didier.mallarino@osupytheas.fr
Project:EMSO http://www.emso-fr.org/EMSO-France
Depth: 2436.0 m
Title:EMSO Ligure Ouest : Data MII capteur MICROCAT
DateTime_Computer,Latitude,Longitude,Temperature,Conductivity,Pressure,DateTime_Instrument
DateTime_Computer,Latitude,Longitude,degC,S m-1,dbar,DateTime_Instrument
2020-03-11T00:01:43Z,42.805,6.029,13.2991,4.60009,2469.9,2020-3-11T02:02:20Z
2020-03-11T00:04:47Z,42.805,6.029,13.2987,4.60021,2469.947,2020-3-11T02:05:23Z
2020-03-11T00:07:50Z,42.805,6.029,13.2987,4.60006,2469.984,2020-3-11T02:08:27Z
2020-03-11T00:10:53Z,42.805,6.029,13.2991,4.60015,2469.937,2020-3-11T02:11:30Z
2020-03-11T00:13:56Z,42.805,6.029,13.2991,4.60011,2469.923,2020-3-11T02:14:33Z
2020-03-11T00:16:59Z,42.805,6.029,13.2983,4.60024,2469.937,2020-3-11T02:17:36Z
2020-03-11T00:20:03Z,42.805,6.029,13.2993,4.60009,2469.923,2020-3-11T02:20:39Z
2020-03-11T00:23:06Z,42.805,6.029,13.2997,4.60019,2469.923,2020-3-11T02:23:43Z
2020-03-11T00:26:09Z,42.805,6.029,13.2990,4.59991,2469.947,2020-3-11T02:26:46Z
2020-03-11T00:29:13Z,42.805,6.029,13.2991,4.60012,2469.947,2020-3-11T02:29:50Z
2020-03-11T00:32:16Z,42.805,6.029,13.2990,4.60009,2469.9,2020-3-11T02:32:53Z
2020-03-11T00:35:19Z,42.805,6.029,13.2991,4.59995,2469.96,2020-3-11T02:35:56Z
2020-03-11T00:38:22Z,42.805,6.029,13.2984,4.60011,2469.984,2020-3-11T02:38:59Z
2020-03-11T00:41:26Z,42.805,6.029,13.2980,4.60001,2469.9,2020-3-11T02:42:02Z
2020-03-11T00:44:29Z,42.805,6.029,13.2988,4.59995,2469.96,2020-3-11T02:45:06Z
2020-03-11T00:47:32Z,42.805,6.029,13.2983,4.59988,2469.947,2020-3-11T02:48:09Z
2020-03-11T00:50:35Z,42.805,6.029,13.2990,4.59995,2469.923,2020-3-11T02:51:12Z
2020-03-11T00:53:39Z,42.805,6.029,13.2992,4.59995,2469.947,2020-3-11T02:54:15Z
2020-03-11T00:56:42Z,42.805,6.029,13.2987,4.59987,2469.937,2020-3-11T02:57:19Z
2020-03-11T00:59:45Z,42.805,6.029,13.2988,4.59984,2469.923,2020-3-11T03:00:22Z
2020-03-11T01:02:48Z,42.805,6.029,13.2982,4.59992,2469.923,2020-3-11T03:03:25Z
2020-03-11T01:05:51Z,42.805,6.029,13.2994,4.60014,2469.947,2020-3-11T03:06:28Z
2020-03-11T01:08:54Z,42.805,6.029,13.2996,4.60018,2469.923,2020-3-11T03:09:31Z
2020-03-11T01:11:58Z,42.805,6.029,13.3000,4.60004,2469.9,2020-3-11T03:12:35Z
2020-03-11T01:15:01Z,42.805,6.029,13.2982,4.59992,2469.9,2020-3-11T03:15:38Z
2020-03-11T01:18:04Z,42.805,6.029,13.2990,4.59994,2469.914,2020-3-11T03:18:41Z
2020-03-11T01:21:07Z,42.805,6.029,13.2987,4.60001,2469.923,2020-3-11T03:21:44Z
2020-03-11T01:24:10Z,42.805,6.029,13.2992,4.60000,2469.9,2020-3-11T03:24:47Z
2020-03-11T01:27:14Z,42.805,6.029,13.2991,4.60004,2469.914,2020-3-11T03:27:50Z
2020-03-11T01:30:17Z,42.805,6.029,13.2993,4.60036,2469.914,2020-3-11T03:30:54Z
2020-03-11T01:33:20Z,42.805,6.029,13.2986,4.60031,2469.937,2020-3-11T03:33:57Z
2020-03-11T01:36:23Z,42.805,6.029,13.2990,4.60004,2469.914,2020-3-11T03:37:00Z
2020-03-11T01:39:27Z,42.805,6.029,13.2998,4.60038,2469.9,2020-3-11T03:40:03Z
2020-03-11T01:42:30Z,42.805,6.029,13.2991,4.60003,2469.876,2020-3-11T03:43:07Z
2020-03-11T01:45:33Z,42.805,6.029,13.2986,4.60001,2469.9,2020-3-11T03:46:10Z
2020-03-11T01:48:36Z,42.805,6.029,13.2983,4.60013,2469.937,2020-3-11T03:49:13Z
2020-03-11T01:51:39Z,42.805,6.029,13.2983,4.59994,2469.9,2020-3-11T03:52:16Z
2020-03-11T01:54:43Z,42.805,6.029,13.2991,4.60012,2469.89,2020-3-11T03:55:19Z
2020-03-11T01:57:46Z,42.805,6.029,13.2982,4.60009,2469.914,2020-3-11T03:58:23Z
2020-03-11T02:00:49Z,42.805,6.029,13.2985,4.60006,2469.914,2020-3-11T04:01:26Z
2020-03-11T02:03:52Z,42.805,6.029,13.2988,4.59998,2469.9,2020-3-11T04:04:29Z
2020-03-11T02:06:55Z,42.805,6.029,13.2991,4.60008,2469.89,2020-3-11T04:07:32Z
2020-03-11T02:09:59Z,42.805,6.029,13.2983,4.60013,2469.853,2020-3-11T04:10:35Z
2020-03-11T02:13:02Z,42.805,6.029,13.2985,4.60013,2469.876,2020-3-11T04:13:39Z
2020-03-11T02:16:05Z,42.805,6.029,13.2985,4.60014,2469.914,2020-3-11T04:16:42Z
2020-03-11T02:19:08Z,42.805,6.029,13.2986,4.59999,2469.876,2020-3-11T04:19:45Z
2020-03-11T02:22:11Z,42.805,6.029,13.2998,4.60018,2469.914,2020-3-11T04:22:48Z
2020-03-11T02:25:15Z,42.805,6.029,13.2987,4.59993,2469.914,2020-3-11T04:25:51Z
2020-03-11T02:28:18Z,42.805,6.029,13.2993,4.60020,2469.876,2020-3-11T04:28:55Z
2020-03-11T02:31:21Z,42.805,6.029,13.2994,4.60014,2469.914,2020-3-11T04:31:58Z
2020-03-11T02:34:24Z,42.805,6.029,13.2998,4.60034,2469.89,2020-3-11T04:35:01Z
2020-03-11T02:37:28Z,42.805,6.029,13.2991,4.60022,2469.853,2020-3-11T04:38:05Z
2020-03-11T02:40:31Z,42.805,6.029,13.3011,4.60015,2469.867,2020-3-11T04:41:08Z
2020-03-11T02:43:34Z,42.805,6.029,13.2994,4.60033,2469.89,2020-3-11T04:44:11Z
2020-03-11T02:46:37Z,42.805,6.029,13.3000,4.60029,2469.853,2020-3-11T04:47:14Z
2020-03-11T02:49:40Z,42.805,6.029,13.2993,4.60027,2469.89,2020-3-11T04:50:17Z
2020-03-11T02:52:44Z,42.805,6.029,13.2991,4.60025,2469.876,2020-3-11T04:53:21Z
2020-03-11T02:55:47Z,42.805,6.029,13.2984,4.60003,2469.867,2020-3-11T04:56:24Z
2020-03-11T02:58:50Z,42.805,6.029,13.3006,4.60011,2469.9,2020-3-11T04:59:27Z
2020-03-11T03:01:53Z,42.805,6.029,13.2993,4.60011,2469.9,2020-3-11T05:02:30Z
2020-03-11T03:04:57Z,42.805,6.029,13.3001,4.60015,2469.853,2020-3-11T05:05:33Z
2020-03-11T03:08:00Z,42.805,6.029,13.2996,4.60044,2469.89,2020-3-11T05:08:37Z
2020-03-11T03:11:03Z,42.805,6.029,13.2995,4.60017,2469.876,2020-3-11T05:11:40Z
2020-03-11T03:14:06Z,42.805,6.029,13.3000,4.60024,2469.867,2020-3-11T05:14:43Z
2020-03-11T03:17:09Z,42.805,6.029,13.2995,4.60005,2469.9,2020-3-11T05:17:46Z
2020-03-11T03:20:13Z,42.805,6.029,13.2993,4.60017,2469.876,2020-3-11T05:20:49Z
2020-03-11T03:23:16Z,42.805,6.029,13.3001,4.60004,2469.867,2020-3-11T05:23:53Z
2020-03-11T03:26:19Z,42.805,6.029,13.2991,4.60026,2469.937,2020-3-11T05:26:56Z
2020-03-11T03:29:22Z,42.805,6.029,13.2988,4.60015,2469.9,2020-3-11T05:29:59Z
2020-03-11T03:32:26Z,42.805,6.029,13.3009,4.60004,2469.876,2020-3-11T05:33:03Z
2020-03-11T03:35:29Z,42.805,6.029,13.2993,4.60003,2469.89,2020-3-11T05:36:06Z
2020-03-11T03:38:32Z,42.805,6.029,13.2990,4.60010,2469.914,2020-3-11T05:39:09Z
2020-03-11T03:41:35Z,42.805,6.029,13.3005,4.60007,2469.9,2020-3-11T05:42:12Z
2020-03-11T03:44:39Z,42.805,6.029,13.2971,4.59976,2469.9,2020-3-11T05:45:15Z
2020-03-11T03:47:42Z,42.805,6.029,13.2975,4.59973,2469.9,2020-3-11T05:48:19Z
2020-03-11T03:50:45Z,42.805,6.029,13.2973,4.59974,2469.914,2020-3-11T05:51:22Z
2020-03-11T03:53:48Z,42.805,6.029,13.2971,4.59976,2469.914,2020-3-11T05:54:25Z
2020-03-11T03:56:51Z,42.805,6.029,13.2993,4.59982,2469.89,2020-3-11T05:57:28Z
2020-03-11T03:59:55Z,42.805,6.029,13.2989,4.59980,2469.9,2020-3-11T06:00:31Z
2020-03-11T04:02:58Z,42.805,6.029,13.2974,4.59978,2469.923,2020-3-11T06:03:35Z
2020-03-11T04:06:01Z,42.805,6.029,13.2972,4.59978,2469.923,2020-3-11T06:06:38Z
2020-03-11T04:09:04Z,42.805,6.029,13.2993,4.60004,2469.947,2020-3-11T06:09:41Z
2020-03-11T04:12:07Z,42.805,6.029,13.2972,4.59978,2469.947,2020-3-11T06:12:44Z
2020-03-11T04:15:11Z,42.805,6.029,13.2969,4.59976,2469.914,2020-3-11T06:15:48Z
2020-03-11T04:18:14Z,42.805,6.029,13.2971,4.59975,2469.947,2020-3-11T06:18:51Z
2020-03-11T04:21:17Z,42.805,6.029,13.2975,4.59974,2469.923,2020-3-11T06:21:54Z
2020-03-11T04:24:20Z,42.805,6.029,13.2969,4.59973,2469.96,2020-3-11T06:24:57Z
2020-03-11T04:27:24Z,42.805,6.029,13.2975,4.59973,2469.984,2020-3-11T06:28:00Z
2020-03-11T04:30:27Z,42.805,6.029,13.2969,4.59974,2469.923,2020-3-11T06:31:04Z
2020-03-11T04:33:30Z,42.805,6.029,13.2971,4.59974,2469.96,2020-3-11T06:34:07Z
2020-03-11T04:36:33Z,42.805,6.029,13.2972,4.59973,2469.96,2020-3-11T06:37:10Z
2020-03-11T04:39:36Z,42.805,6.029,13.2974,4.59973,2469.947,2020-3-11T06:40:13Z
2020-03-11T04:42:40Z,42.805,6.029,13.2973,4.59973,2469.993,2020-3-11T06:43:16Z
2020-03-11T04:45:43Z,42.805,6.029,13.2971,4.59973,2470.007,2020-3-11T06:46:20Z
2020-03-11T04:48:46Z,42.805,6.029,13.2976,4.59975,2470.007,2020-3-11T06:49:23Z
2020-03-11T04:51:49Z,42.805,6.029,13.2973,4.59973,2469.947,2020-3-11T06:52:26Z
2020-03-11T04:54:52Z,42.805,6.029,13.2976,4.59973,2469.993,2020-3-11T06:55:29Z
2020-03-11T04:57:56Z,42.805,6.029,13.2974,4.59973,2469.97,2020-3-11T06:58:33Z
2020-03-11T05:00:59Z,42.805,6.029,13.2969,4.59975,2469.984,2020-3-11T07:01:36Z
2020-03-11T05:04:02Z,42.805,6.029,13.2968,4.59973,2469.97,2020-3-11T07:04:39Z
2020-03-11T05:07:05Z,42.805,6.029,13.2972,4.59975,2470.017,2020-3-11T07:07:42Z
2020-03-11T05:10:09Z,42.805,6.029,13.2974,4.59973,2470.017,2020-3-11T07:10:45Z
2020-03-11T05:13:12Z,42.805,6.029,13.2975,4.59973,2470.007,2020-3-11T07:13:49Z
2020-03-11T05:16:15Z,42.805,6.029,13.2971,4.59974,2470.04,2020-3-11T07:16:52Z
2020-03-11T05:19:18Z,42.805,6.029,13.2974,4.59972,2470.017,2020-3-11T07:19:55Z
2020-03-11T05:22:22Z,42.805,6.029,13.2974,4.59973,2469.993,2020-3-11T07:22:58Z
2020-03-11T05:25:25Z,42.805,6.029,13.2969,4.59971,2470.04,2020-3-11T07:26:02Z
2020-03-11T05:28:28Z,42.805,6.029,13.2971,4.59973,2470.017,2020-3-11T07:29:05Z
2020-03-11T05:31:31Z,42.805,6.029,13.2971,4.59973,2470.04,2020-3-11T07:32:08Z
2020-03-11T05:34:34Z,42.805,6.029,13.2974,4.59973,2470.04,2020-3-11T07:35:11Z
2020-03-11T05:37:38Z,42.805,6.029,13.2969,4.59977,2470.007,2020-3-11T07:38:14Z
2020-03-11T05:40:41Z,42.805,6.029,13.2971,4.59971,2470.017,2020-3-11T07:41:18Z
2020-03-11T05:43:44Z,42.805,6.029,13.2971,4.59973,2470.053,2020-3-11T07:44:21Z
2020-03-11T05:46:47Z,42.805,6.029,13.2970,4.59973,2470.063,2020-3-11T07:47:24Z
2020-03-11T05:49:51Z,42.805,6.029,13.2969,4.59974,2470.017,2020-3-11T07:50:28Z
2020-03-11T05:52:54Z,42.805,6.029,13.2971,4.59972,2470.063,2020-3-11T07:53:31Z
2020-03-11T05:55:57Z,42.805,6.029,13.2972,4.59974,2470.063,2020-3-11T07:56:34Z
2020-03-11T05:59:00Z,42.805,6.029,13.2972,4.59971,2470.077,2020-3-11T07:59:37Z
2020-03-11T06:02:04Z,42.805,6.029,13.2971,4.59973,2470.063,2020-3-11T08:02:40Z
2020-03-11T06:05:07Z,42.805,6.029,13.2977,4.59971,2470.063,2020-3-11T08:05:44Z
2020-03-11T06:08:10Z,42.805,6.029,13.2969,4.59974,2470.077,2020-3-11T08:08:47Z
2020-03-11T06:11:13Z,42.805,6.029,13.2971,4.59972,2470.063,2020-3-11T08:11:50Z
2020-03-11T06:14:16Z,42.805,6.029,13.2971,4.59972,2470.087,2020-3-11T08:14:53Z
2020-03-11T06:17:20Z,42.805,6.029,13.2971,4.59973,2470.1,2020-3-11T08:17:56Z
2020-03-11T06:20:23Z,42.805,6.029,13.2974,4.59973,2470.087,2020-3-11T08:21:00Z
2020-03-11T06:23:26Z,42.805,6.029,13.2974,4.59972,2470.11,2020-3-11T08:24:03Z
2020-03-11T06:26:29Z,42.805,6.029,13.2971,4.59974,2470.11,2020-3-11T08:27:06Z
2020-03-11T06:29:32Z,42.805,6.029,13.2974,4.59973,2470.087,2020-3-11T08:30:09Z
2020-03-11T06:32:36Z,42.805,6.029,13.2972,4.59973,2470.096,2020-3-11T08:33:12Z
2020-03-11T06:35:39Z,42.805,6.029,13.2974,4.59973,2470.087,2020-3-11T08:36:16Z
2020-03-11T06:38:42Z,42.805,6.029,13.2974,4.59973,2470.124,2020-3-11T08:39:19Z
2020-03-11T06:41:45Z,42.805,6.029,13.2972,4.59973,2470.133,2020-3-11T08:42:22Z
2020-03-11T06:44:48Z,42.805,6.029,13.2974,4.59973,2470.11,2020-3-11T08:45:25Z
2020-03-11T06:47:52Z,42.805,6.029,13.2969,4.59973,2470.1,2020-3-11T08:48:28Z
2020-03-11T06:50:55Z,42.805,6.029,13.2973,4.59973,2470.124,2020-3-11T08:51:32Z
2020-03-11T06:53:58Z,42.805,6.029,13.2974,4.59973,2470.133,2020-3-11T08:54:35Z
2020-03-11T06:57:01Z,42.805,6.029,13.2976,4.59974,2470.156,2020-3-11T08:57:38Z
2020-03-11T07:00:05Z,42.805,6.029,13.2981,4.59986,2470.156,2020-3-11T09:00:41Z
2020-03-11T07:03:08Z,42.805,6.029,13.2985,4.59982,2470.133,2020-3-11T09:03:45Z
2020-03-11T07:06:11Z,42.805,6.029,13.2976,4.59976,2470.11,2020-3-11T09:06:48Z
2020-03-11T07:09:14Z,42.805,6.029,13.2970,4.59974,2470.147,2020-3-11T09:09:51Z
2020-03-11T07:12:17Z,42.805,6.029,13.2974,4.59976,2470.156,2020-3-11T09:12:54Z
2020-03-11T07:15:21Z,42.805,6.029,13.2977,4.59977,2470.18,2020-3-11T09:15:57Z
2020-03-11T07:18:24Z,42.805,6.029,13.2977,4.59978,2470.156,2020-3-11T09:19:01Z
2020-03-11T07:21:27Z,42.805,6.029,13.2979,4.59984,2470.18,2020-3-11T09:22:04Z
2020-03-11T07:24:30Z,42.805,6.029,13.2979,4.59985,2470.194,2020-3-11T09:25:07Z
2020-03-11T07:27:34Z,42.805,6.029,13.2976,4.59981,2470.171,2020-3-11T09:28:10Z
2020-03-11T07:30:37Z,42.805,6.029,13.2975,4.59978,2470.147,2020-3-11T09:31:14Z
2020-03-11T07:33:40Z,42.805,6.029,13.2979,4.59976,2470.203,2020-3-11T09:34:17Z
2020-03-11T07:36:43Z,42.805,6.029,13.2976,4.59976,2470.156,2020-3-11T09:37:20Z
2020-03-11T07:39:46Z,42.805,6.029,13.2983,4.59994,2470.24,2020-3-11T09:40:23Z
2020-03-11T07:42:50Z,42.805,6.029,13.2993,4.59995,2470.156,2020-3-11T09:43:26Z
2020-03-11T07:45:53Z,42.805,6.029,13.2984,4.59983,2470.18,2020-3-11T09:46:30Z
2020-03-11T07:48:56Z,42.805,6.029,13.2980,4.59986,2470.171,2020-3-11T09:49:33Z
2020-03-11T07:52:00Z,42.805,6.029,13.2991,4.59995,2470.194,2020-3-11T09:52:36Z
2020-03-11T07:55:03Z,42.805,6.029,13.2995,4.59991,2470.194,2020-3-11T09:55:40Z
2020-03-11T07:58:06Z,42.805,6.029,13.2986,4.59996,2470.18,2020-3-11T09:58:43Z
2020-03-11T08:01:09Z,42.805,6.029,13.2995,4.60010,2470.18,2020-3-11T10:01:46Z
2020-03-11T08:04:12Z,42.805,6.029,13.2991,4.60011,2470.194,2020-3-11T10:04:49Z
2020-03-11T08:07:16Z,42.805,6.029,13.2996,4.60014,2470.203,2020-3-11T10:07:53Z
2020-03-11T08:10:19Z,42.805,6.029,13.2995,4.60021,2470.24,2020-3-11T10:10:56Z
2020-03-11T08:13:22Z,42.805,6.029,13.2980,4.60003,2470.156,2020-3-11T10:13:59Z
2020-03-11T08:16:26Z,42.805,6.029,13.2986,4.60008,2470.194,2020-3-11T10:17:03Z
2020-03-11T08:19:29Z,42.805,6.029,13.2990,4.60011,2470.194,2020-3-11T10:20:06Z
2020-03-11T08:22:32Z,42.805,6.029,13.2987,4.60003,2470.194,2020-3-11T10:23:09Z
2020-03-11T08:25:36Z,42.805,6.029,13.2985,4.59999,2470.18,2020-3-11T10:26:12Z
2020-03-11T08:28:39Z,42.805,6.029,13.2989,4.60001,2470.203,2020-3-11T10:29:16Z
2020-03-11T08:31:42Z,42.805,6.029,13.2984,4.59998,2470.171,2020-3-11T10:32:19Z
2020-03-11T08:34:45Z,42.805,6.029,13.2985,4.60003,2470.203,2020-3-11T10:35:22Z
2020-03-11T08:37:48Z,42.805,6.029,13.2990,4.60009,2470.194,2020-3-11T10:38:25Z
2020-03-11T08:40:52Z,42.805,6.029,13.2988,4.60005,2470.194,2020-3-11T10:41:28Z
2020-03-11T08:43:55Z,42.805,6.029,13.2986,4.60009,2470.227,2020-3-11T10:44:32Z
2020-03-11T08:46:58Z,42.805,6.029,13.2986,4.60008,2470.194,2020-3-11T10:47:35Z
2020-03-11T08:50:01Z,42.805,6.029,13.2987,4.60003,2470.194,2020-3-11T10:50:38Z
2020-03-11T08:53:05Z,42.805,6.029,13.2980,4.59995,2470.217,2020-3-11T10:53:41Z
2020-03-11T08:56:08Z,42.805,6.029,13.2979,4.59991,2470.217,2020-3-11T10:56:45Z
2020-03-11T08:59:11Z,42.805,6.029,13.2984,4.59996,2470.18,2020-3-11T10:59:48Z
2020-03-11T09:02:14Z,42.805,6.029,13.2990,4.59996,2470.18,2020-3-11T11:02:51Z
2020-03-11T09:05:17Z,42.805,6.029,13.2980,4.59995,2470.203,2020-3-11T11:05:54Z
2020-03-11T09:08:21Z,42.805,6.029,13.2989,4.60002,2470.18,2020-3-11T11:08:57Z
2020-03-11T09:11:24Z,42.805,6.029,13.2980,4.59991,2470.203,2020-3-11T11:12:01Z
2020-03-11T09:14:27Z,42.805,6.029,13.2986,4.60000,2470.18,2020-3-11T11:15:04Z
2020-03-11T09:17:30Z,42.805,6.029,13.2983,4.59996,2470.217,2020-3-11T11:18:07Z
2020-03-11T09:20:34Z,42.805,6.029,13.2983,4.59991,2470.217,2020-3-11T11:21:10Z
2020-03-11T09:23:37Z,42.805,6.029,13.2987,4.59995,2470.203,2020-3-11T11:24:14Z
2020-03-11T09:26:40Z,42.805,6.029,13.2984,4.59993,2470.18,2020-3-11T11:27:17Z
2020-03-11T09:29:43Z,42.805,6.029,13.2983,4.59997,2470.194,2020-3-11T11:30:20Z
2020-03-11T09:32:46Z,42.805,6.029,13.2987,4.59997,2470.18,2020-3-11T11:33:23Z
2020-03-11T09:35:50Z,42.805,6.029,13.2977,4.59991,2470.203,2020-3-11T11:36:27Z
2020-03-11T09:38:54Z,42.805,6.029,13.2986,4.59994,2470.203,2020-3-11T11:39:30Z
2020-03-11T09:41:57Z,42.805,6.029,13.2978,4.59987,2470.156,2020-3-11T11:42:34Z
2020-03-11T09:45:00Z,42.805,6.029,13.2982,4.59994,2470.227,2020-3-11T11:45:37Z
2020-03-11T09:48:03Z,42.805,6.029,13.2982,4.59987,2470.194,2020-3-11T11:48:40Z
2020-03-11T09:51:07Z,42.805,6.029,13.2976,4.59990,2470.156,2020-3-11T11:51:43Z
2020-03-11T09:54:10Z,42.805,6.029,13.2985,4.59989,2470.156,2020-3-11T11:54:47Z
2020-03-11T09:57:13Z,42.805,6.029,13.2978,4.59990,2470.133,2020-3-11T11:57:50Z
2020-03-11T10:00:16Z,42.805,6.029,13.2984,4.59988,2470.171,2020-3-11T12:00:53Z
2020-03-11T10:03:19Z,42.805,6.029,13.2979,4.59991,2470.171,2020-3-11T12:03:56Z
2020-03-11T10:06:23Z,42.805,6.029,13.2984,4.59996,2470.171,2020-3-11T12:06:59Z
2020-03-11T10:09:26Z,42.805,6.029,13.2979,4.59998,2470.11,2020-3-11T12:10:03Z
2020-03-11T10:12:29Z,42.805,6.029,13.2983,4.59989,2470.124,2020-3-11T12:13:06Z
2020-03-11T10:15:32Z,42.805,6.029,13.2982,4.59993,2470.194,2020-3-11T12:16:09Z
2020-03-11T10:18:36Z,42.805,6.029,13.2983,4.59998,2470.11,2020-3-11T12:19:12Z
2020-03-11T10:21:39Z,42.805,6.029,13.2983,4.59996,2470.124,2020-3-11T12:22:16Z
2020-03-11T10:24:42Z,42.805,6.029,13.2983,4.59991,2470.171,2020-3-11T12:25:19Z
2020-03-11T10:27:45Z,42.805,6.029,13.2977,4.60004,2470.119,2020-3-11T12:28:22Z
2020-03-11T10:30:48Z,42.805,6.029,13.2983,4.60000,2470.156,2020-3-11T12:31:25Z
2020-03-11T10:33:52Z,42.805,6.029,13.2982,4.59995,2470.147,2020-3-11T12:34:28Z
2020-03-11T10:36:55Z,42.805,6.029,13.2988,4.59991,2470.124,2020-3-11T12:37:32Z
2020-03-11T10:39:58Z,42.805,6.029,13.2979,4.59996,2470.124,2020-3-11T12:40:35Z
2020-03-11T10:43:01Z,42.805,6.029,13.2983,4.59996,2470.133,2020-3-11T12:43:38Z
2020-03-11T10:46:05Z,42.805,6.029,13.2978,4.59991,2470.147,2020-3-11T12:46:41Z
2020-03-11T10:49:08Z,42.805,6.029,13.2982,4.59997,2470.11,2020-3-11T12:49:45Z
2020-03-11T10:52:11Z,42.805,6.029,13.2983,4.60003,2470.11,2020-3-11T12:52:48Z
2020-03-11T10:55:14Z,42.805,6.029,13.2985,4.60002,2470.11,2020-3-11T12:55:51Z
